This is the latest recevied weather packets stored in our database for station/object K5DLF-13. If no packets are shown the sender has not sent any weather packets the latest 10 day(s).
| Time | Temp. | Humidity | Pressure | Rain* | Wind** | Luminosity | Snow |
|---|---|---|---|---|---|---|---|
| 1777995298 | 26.67° C | 84% | 1007.1 hPa | 0 mm | - | 100 W/m² | - |
| 1777994997 | 26.67° C | 84% | 1007.1 hPa | 0 mm | - | 125 W/m² | - |
| 1777994697 | 27.22° C | 83% | 1007 hPa | 0 mm | - | 134 W/m² | - |
| 1777994398 | 27.22° C | 84% | 1007 hPa | 0 mm | - | 207 W/m² | - |
| 1777994097 | 26.67° C | 85% | 1006.9 hPa | 0 mm | - | 216 W/m² | - |
| 1777993798 | 26.67° C | 86% | 1007.1 hPa | 0 mm | - | 181 W/m² | - |
| 1777993498 | 26.67° C | 88% | 1006.9 hPa | 0 mm | - | 348 W/m² | - |
| 1777993198 | 26.11° C | 88% | 1006.9 hPa | 0 mm | - | 647 W/m² | - |
| 1777992898 | 25.56° C | 90% | 1007 hPa | 0 mm | - | 267 W/m² | - |
| 1777992598 | 25.56° C | 91% | 1007 hPa | 0 mm | - | 487 W/m² | - |
| 1777992298 | 25° C | 93% | 1007.1 hPa | 0 mm | - | 501 W/m² | - |
| 1777991998 | 25° C | 92% | 1007.2 hPa | 0 mm | - | 239 W/m² | - |
| 1777991698 | 24.44° C | 91% | 1007.2 hPa | 0 mm | - | 190 W/m² | - |
| 1777991398 | 24.44° C | 91% | 1007.3 hPa | 0 mm | - | 95 W/m² | - |
| 1777991098 | 24.44° C | 91% | 1007.2 hPa | 0 mm | - | 58 W/m² | - |
| 1777990798 | 24.44° C | 91% | 1007.2 hPa | 0 mm | - | 54 W/m² | - |
| 1777990498 | 24.44° C | 91% | 1007.2 hPa | 0 mm | - | 56 W/m² | - |
| 1777989898 | 24.44° C | 91% | 1007.1 hPa | 0 mm | - | 81 W/m² | - |
| 1777989598 | 24.44° C | 92% | 1007.1 hPa | 0 mm | - | 77 W/m² | - |
| 1777989298 | 24.44° C | 92% | 1007 hPa | 0 mm | - | 97 W/m² | - |
| 1777988998 | 23.89° C | 92% | 1006.9 hPa | 0 mm | - | 90 W/m² | - |
| 1777988698 | 23.89° C | 92% | 1006.9 hPa | 0 mm | - | 83 W/m² | - |
| 1777988398 | 23.89° C | 92% | 1006.8 hPa | 0 mm | - | 69 W/m² | - |
| 1777988098 | 23.89° C | 92% | 1006.9 hPa | 0 mm | - | 46 W/m² | - |
| 1777987798 | 23.89° C | 92% | 1006.8 hPa | 0 mm | - | 32 W/m² | - |
* Rain latest hour (hover to see other rain measurements)
** Current wind speed in m/s (hover to see current wind gust speed)